Saint Bonnet de Bellac- Haute Vienne - France
Donnes mto: mardi, 10/01/2012
Date Horaire Temp. E. Hum. E. P.atmo. Pluie Vent Direction Direction Ensoleilleme Solaire P. de rose Temp au vent Rafales
10/01/2012 00:00 5,2 C 89 % 1033,4 hPa 0,0 mm 0,0 km/h (0 Bft) N-NE 22 0 min 0 W/m 3,5 C 5,2 C 0,0 km/h (0 Bft)
10/01/2012 00:10 4,8 C 89 % 1033,4 hPa 0,0 mm 0,0 km/h (0 Bft) N 360 0 min 0 W/m 3,1 C 4,8 C 0,0 km/h (0 Bft)
10/01/2012 00:20 4,4 C 90 % 1033,4 hPa 0,0 mm 0,0 km/h (0 Bft) N 360 0 min 0 W/m 2,9 C 4,4 C 0,0 km/h (0 Bft)
10/01/2012 00:30 4,3 C 90 % 1033,5 hPa 0,0 mm 0,0 km/h (0 Bft) N 360 0 min 0 W/m 2,8 C 4,3 C 0,0 km/h (0 Bft)
10/01/2012 00:40 4,1 C 90 % 1033,4 hPa 0,0 mm 0,0 km/h (0 Bft) N 360 0 min 0 W/m 2,6 C 4,1 C 0,0 km/h (0 Bft)
10/01/2012 00:50 3,8 C 90 % 1033,4 hPa 0,0 mm 0,0 km/h (0 Bft) N 360 0 min 0 W/m 2,3 C 3,8 C 0,0 km/h (0 Bft)
10/01/2012 01:00 3,6 C 90 % 1033,3 hPa 0,0 mm 0,0 km/h (0 Bft) N 360 0 min 0 W/m 2,1 C 3,6 C 0,0 km/h (0 Bft)
10/01/2012 01:10 3,6 C 91 % 1033,3 hPa 0,0 mm 0,0 km/h (0 Bft) N-NE 22 0 min 0 W/m 2,3 C 3,6 C 0,0 km/h (0 Bft)
10/01/2012 01:20 3,7 C 91 % 1033,3 hPa 0,0 mm 0,4 km/h (0 Bft) NE 45 0 min 0 W/m 2,4 C 3,7 C 0,4 km/h (0 Bft)
10/01/2012 01:30 3,9 C 91 % 1033,3 hPa 0,0 mm 0,0 km/h (0 Bft) NE 45 0 min 0 W/m 2,6 C 3,9 C 0,0 km/h (0 Bft)
10/01/2012 01:40 4,3 C 91 % 1033,3 hPa 0,0 mm 0,0 km/h (0 Bft) E-NE 67 0 min 0 W/m 3,0 C 4,3 C 0,0 km/h (0 Bft)
10/01/2012 01:50 4,6 C 92 % 1033,2 hPa 0,0 mm 0,0 km/h (0 Bft) E-NE 67 0 min 0 W/m 3,4 C 4,6 C 0,0 km/h (0 Bft)
10/01/2012 02:02 4,8 C 92 % 1033,2 hPa 0,0 mm 0,0 km/h (0 Bft) E-NE 67 0 min 0 W/m 3,6 C 4,8 C 0,0 km/h (0 Bft)
10/01/2012 02:10 4,8 C 92 % 1033,1 hPa 0,0 mm 0,0 km/h (0 Bft) E-NE 67 0 min 0 W/m 3,6 C 4,8 C 0,0 km/h (0 Bft)
10/01/2012 02:20 4,8 C 92 % 1033,1 hPa 0,0 mm 1,1 km/h (1 Bft) N 360 0 min 0 W/m 3,6 C 4,8 C 4,3 km/h (1 Bft)
10/01/2012 02:30 4,8 C 92 % 1033,2 hPa 0,0 mm 0,0 km/h (0 Bft) N 360 0 min 0 W/m 3,6 C 4,8 C 0,0 km/h (0 Bft)
10/01/2012 02:40 4,8 C 92 % 1033,4 hPa 0,0 mm 0,0 km/h (0 Bft) E-SE 112 0 min 0 W/m 3,6 C 4,8 C 0,0 km/h (0 Bft)
10/01/2012 02:50 4,8 C 92 % 1033,3 hPa 0,0 mm 0,0 km/h (0 Bft) E 90 0 min 0 W/m 3,6 C 4,8 C 1,4 km/h (1 Bft)
10/01/2012 03:00 4,8 C 92 % 1033,5 hPa 0,0 mm 0,0 km/h (0 Bft) E 90 0 min 0 W/m 3,6 C 4,8 C 0,0 km/h (0 Bft)
10/01/2012 03:10 4,8 C 93 % 1033,6 hPa 0,0 mm 0,7 km/h (0 Bft) N-NE 22 0 min 0 W/m 3,8 C 4,8 C 3,6 km/h (1 Bft)
10/01/2012 03:20 4,8 C 93 % 1033,5 hPa 0,0 mm 0,0 km/h (0 Bft) NE 45 0 min 0 W/m 3,8 C 4,8 C 0,0 km/h (0 Bft)
10/01/2012 03:30 4,9 C 93 % 1033,5 hPa 0,0 mm 0,0 km/h (0 Bft) NE 45 0 min 0 W/m 3,9 C 4,9 C 2,9 km/h (1 Bft)
10/01/2012 03:40 4,9 C 93 % 1033,5 hPa 0,0 mm 2,2 km/h (1 Bft) N-NE 22 0 min 0 W/m 3,9 C 4,9 C 4,3 km/h (1 Bft)
10/01/2012 03:50 4,9 C 93 % 1033,5 hPa 0,0 mm 0,7 km/h (0 Bft) N-NE 22 0 min 0 W/m 3,9 C 4,9 C 3,6 km/h (1 Bft)
10/01/2012 04:00 4,9 C 93 % 1033,4 hPa 0,0 mm 0,0 km/h (0 Bft) E-NE 67 0 min 0 W/m 3,9 C 4,9 C 0,0 km/h (0 Bft)
10/01/2012 04:10 4,9 C 93 % 1033,3 hPa 0,0 mm 0,7 km/h (0 Bft) N-NE 22 0 min 0 W/m 3,9 C 4,9 C 4,0 km/h (1 Bft)
10/01/2012 04:20 4,9 C 93 % 1033,3 hPa 0,0 mm 2,9 km/h (1 Bft) NE 45 0 min 0 W/m 3,9 C 4,9 C 4,0 km/h (1 Bft)
10/01/2012 04:30 4,8 C 93 % 1033,3 hPa 0,0 mm 0,0 km/h (0 Bft) N-NE 22 0 min 0 W/m 3,8 C 4,8 C 0,0 km/h (0 Bft)
10/01/2012 04:40 4,8 C 93 % 1033,3 hPa 0,0 mm 0,0 km/h (0 Bft) NE 45 0 min 0 W/m 3,8 C 4,8 C 0,0 km/h (0 Bft)
10/01/2012 04:50 4,7 C 93 % 1033,1 hPa 0,0 mm 0,0 km/h (0 Bft) NE 45 0 min 0 W/m 3,7 C 4,7 C 3,2 km/h (1 Bft)
10/01/2012 05:00 4,6 C 93 % 1033,2 hPa 0,0 mm 2,5 km/h (1 Bft) N-NE 22 0 min 0 W/m 3,6 C 4,6 C 4,3 km/h (1 Bft)
10/01/2012 05:10 4,5 C 93 % 1033,2 hPa 0,0 mm 0,4 km/h (0 Bft) N 360 0 min 0 W/m 3,5 C 4,5 C 3,6 km/h (1 Bft)
10/01/2012 05:20 4,5 C 93 % 1033,1 hPa 0,0 mm 0,0 km/h (0 Bft) N 360 0 min 0 W/m 3,5 C 4,5 C 0,0 km/h (0 Bft)
10/01/2012 05:30 4,4 C 93 % 1033,0 hPa 0,0 mm 0,0 km/h (0 Bft) NE 45 0 min 0 W/m 3,4 C 4,4 C 0,0 km/h (0 Bft)
10/01/2012 05:40 4,4 C 93 % 1033,0 hPa 0,0 mm 1,1 km/h (1 Bft) N-NE 22 0 min 0 W/m 3,4 C 4,4 C 2,9 km/h (1 Bft)
10/01/2012 05:50 4,4 C 93 % 1033,0 hPa 0,0 mm 0,0 km/h (0 Bft) N-NE 22 0 min 0 W/m 3,4 C 4,4 C 0,0 km/h (0 Bft)
10/01/2012 06:00 4,4 C 94 % 1033,1 hPa 0,0 mm 0,4 km/h (0 Bft) N-NE 22 0 min 0 W/m 3,5 C 4,4 C 2,9 km/h (1 Bft)
10/01/2012 06:10 4,4 C 94 % 1032,9 hPa 0,0 mm 0,4 km/h (0 Bft) NE 45 0 min 0 W/m 3,5 C 4,4 C 3,6 km/h (1 Bft)
10/01/2012 06:20 4,5 C 94 % 1032,9 hPa 0,0 mm 2,5 km/h (1 Bft) NE 45 0 min 0 W/m 3,6 C 4,5 C 4,0 km/h (1 Bft)
10/01/2012 06:30 4,6 C 94 % 1032,9 hPa 0,0 mm 0,0 km/h (0 Bft) N-NE 22 0 min 0 W/m 3,7 C 4,6 C 0,0 km/h (0 Bft)
10/01/2012 06:40 4,6 C 94 % 1032,9 hPa 0,0 mm 0,0 km/h (0 Bft) N-NE 22 0 min 0 W/m 3,7 C 4,6 C 3,2 km/h (1 Bft)
10/01/2012 06:50 4,6 C 94 % 1032,9 hPa 0,0 mm 1,1 km/h (1 Bft) NE 45 0 min 0 W/m 3,7 C 4,6 C 3,2 km/h (1 Bft)
10/01/2012 07:00 4,6 C 94 % 1032,8 hPa 0,0 mm 0,0 km/h (0 Bft) NE 45 0 min 0 W/m 3,7 C 4,6 C 0,0 km/h (0 Bft)
10/01/2012 07:10 4,8 C 94 % 1032,8 hPa 0,0 mm 0,0 km/h (0 Bft) NE 45 0 min 0 W/m 3,9 C 4,8 C 0,0 km/h (0 Bft)
10/01/2012 07:20 4,8 C 94 % 1032,8 hPa 0,0 mm 0,0 km/h (0 Bft) NE 45 0 min 0 W/m 3,9 C 4,8 C 1,4 km/h (1 Bft)
10/01/2012 07:30 4,8 C 94 % 1032,8 hPa 0,0 mm 0,0 km/h (0 Bft) NE 45 0 min 0 W/m 3,9 C 4,8 C 0,0 km/h (0 Bft)
10/01/2012 07:40 4,9 C 94 % 1032,8 hPa 0,0 mm 0,0 km/h (0 Bft) NE 45 0 min 0 W/m 4,0 C 4,9 C 0,0 km/h (0 Bft)
10/01/2012 07:50 4,9 C 94 % 1032,9 hPa 0,0 mm 1,4 km/h (1 Bft) NE 45 0 min 0 W/m 4,0 C 4,9 C 4,0 km/h (1 Bft)
10/01/2012 08:00 4,9 C 94 % 1032,9 hPa 0,0 mm 2,9 km/h (1 Bft) NE 45 0 min 0 W/m 4,0 C 4,9 C 6,5 km/h (2 Bft)
10/01/2012 08:10 5,1 C 94 % 1033,0 hPa 0,0 mm 1,8 km/h (1 Bft) NE 45 0 min 0 W/m 4,2 C 5,1 C 4,3 km/h (1 Bft)
10/01/2012 08:20 5,1 C 94 % 1032,9 hPa 0,0 mm 1,4 km/h (1 Bft) NE 45 0 min 0 W/m 4,2 C 5,1 C 6,1 km/h (2 Bft)
10/01/2012 08:30 5,1 C 94 % 1032,9 hPa 0,0 mm 2,2 km/h (1 Bft) NE 45 0 min 0 W/m 4,2 C 5,1 C 6,5 km/h (2 Bft)
10/01/2012 08:40 5,1 C 94 % 1033,0 hPa 0,0 mm 4,3 km/h (1 Bft) NE 45 0 min 0 W/m 4,2 C 5,1 C 4,3 km/h (1 Bft)
10/01/2012 08:50 5,1 C 94 % 1033,2 hPa 0,0 mm 3,6 km/h (1 Bft) E-NE 67 2 min 0 W/m 4,2 C 5,1 C 7,6 km/h (2 Bft)
10/01/2012 09:00 5,2 C 94 % 1033,1 hPa 0,0 mm 0,4 km/h (0 Bft) NE 45 2 min 0 W/m 4,3 C 5,2 C 0,4 km/h (0 Bft)
10/01/2012 09:10 5,2 C 94 % 1033,2 hPa 0,0 mm 1,1 km/h (1 Bft) NE 45 2 min 0 W/m 4,3 C 5,2 C 3,6 km/h (1 Bft)
10/01/2012 09:20 5,3 C 94 % 1033,2 hPa 0,0 mm 0,4 km/h (0 Bft) NE 45 2 min 0 W/m 4,4 C 5,3 C 0,4 km/h (0 Bft)
10/01/2012 09:30 5,4 C 94 % 1033,3 hPa 0,0 mm 1,4 km/h (1 Bft) E-NE 67 2 min 0 W/m 4,5 C 5,4 C 3,6 km/h (1 Bft)
10/01/2012 09:40 5,4 C 94 % 1033,3 hPa 0,0 mm 6,5 km/h (2 Bft) NE 45 2 min 0 W/m 4,5 C 4,0 C 9,4 km/h (2 Bft)
10/01/2012 09:50 5,5 C 94 % 1033,4 hPa 0,0 mm 2,5 km/h (1 Bft) NE 45 2 min 0 W/m 4,6 C 5,5 C 7,2 km/h (2 Bft)
10/01/2012 10:00 5,6 C 95 % 1033,5 hPa 0,0 mm 4,3 km/h (1 Bft) N-NE 22 2 min 0 W/m 4,9 C 5,6 C 9,4 km/h (2 Bft)
10/01/2012 10:10 5,6 C 95 % 1033,4 hPa 0,0 mm 0,7 km/h (0 Bft) NE 45 2 min 0 W/m 4,9 C 5,6 C 0,7 km/h (0 Bft)
10/01/2012 10:20 5,7 C 95 % 1033,5 hPa 0,0 mm 1,8 km/h (1 Bft) NE 45 2 min 0 W/m 5,0 C 5,7 C 1,8 km/h (1 Bft)
10/01/2012 10:30 5,7 C 95 % 1033,5 hPa 0,0 mm 1,8 km/h (1 Bft) E-NE 67 2 min 0 W/m 5,0 C 5,7 C 4,0 km/h (1 Bft)
10/01/2012 10:40 5,8 C 95 % 1033,4 hPa 0,0 mm 3,2 km/h (1 Bft) N-NE 22 2 min 0 W/m 5,1 C 5,8 C 6,1 km/h (2 Bft)
10/01/2012 10:50 5,8 C 95 % 1033,5 hPa 0,0 mm 4,0 km/h (1 Bft) NE 45 2 min 0 W/m 5,1 C 5,8 C 4,0 km/h (1 Bft)
10/01/2012 11:00 5,9 C 95 % 1033,4 hPa 0,0 mm 5,8 km/h (2 Bft) NE 45 2 min 0 W/m 5,2 C 4,8 C 7,6 km/h (2 Bft)
10/01/2012 11:10 6,1 C 95 % 1033,5 hPa 0,0 mm 4,0 km/h (1 Bft) N-NE 22 2 min 0 W/m 5,4 C 6,1 C 8,6 km/h (2 Bft)
10/01/2012 11:20 6,3 C 95 % 1033,4 hPa 0,0 mm 7,9 km/h (2 Bft) NE 45 2 min 0 W/m 5,6 C 4,7 C 10,4 km/h (2 Bft)
10/01/2012 11:30 6,8 C 95 % 1033,3 hPa 0,0 mm 3,6 km/h (1 Bft) NE 45 2 min 0 W/m 6,1 C 6,8 C 3,6 km/h (1 Bft)
10/01/2012 11:40 7,2 C 95 % 1033,4 hPa 0,0 mm 3,2 km/h (1 Bft) NE 45 2 min 0 W/m 6,5 C 7,2 C 4,0 km/h (1 Bft)
10/01/2012 11:50 7,8 C 96 % 1033,2 hPa 0,0 mm 5,0 km/h (1 Bft) N-NE 22 2 min 0 W/m 7,2 C 7,3 C 7,9 km/h (2 Bft)
10/01/2012 12:00 8,2 C 95 % 1033,1 hPa 0,0 mm 3,6 km/h (1 Bft) NE 45 2 min 0 W/m 7,4 C 8,2 C 4,0 km/h (1 Bft)
10/01/2012 12:10 8,3 C 95 % 1033,0 hPa 0,0 mm 5,0 km/h (1 Bft) NE 45 2 min 0 W/m 7,5 C 7,8 C 9,0 km/h (2 Bft)
10/01/2012 12:20 8,9 C 95 % 1032,9 hPa 0,0 mm 4,3 km/h (1 Bft) N-NE 22 2 min 0 W/m 8,1 C 8,9 C 4,3 km/h (1 Bft)
10/01/2012 12:30 9,4 C 94 % 1033,0 hPa 0,0 mm 6,8 km/h (2 Bft) N-NE 22 2 min 0 W/m 8,5 C 8,6 C 8,3 km/h (2 Bft)
10/01/2012 12:40 10,0 C 93 % 1032,9 hPa 0,0 mm 6,1 km/h (2 Bft) NE 45 2 min 0 W/m 8,9 C 9,4 C 9,0 km/h (2 Bft)
10/01/2012 12:50 10,6 C 90 % 1032,8 hPa 0,0 mm 4,3 km/h (1 Bft) N-NE 22 2 min 0 W/m 9,0 C 10,6 C 10,8 km/h (2 Bft)
10/01/2012 13:00 11,2 C 89 % 1032,7 hPa 0,0 mm 6,1 km/h (2 Bft) NE 45 2 min 0 W/m 9,5 C 11,2 C 7,2 km/h (2 Bft)
10/01/2012 13:10 11,4 C 86 % 1032,4 hPa 0,0 mm 10,4 km/h (2 Bft) N-NE 22 2 min 0 W/m 9,1 C 11,4 C 10,4 km/h (2 Bft)
10/01/2012 13:20 11,4 C 84 % 1032,5 hPa 0,0 mm 4,7 km/h (1 Bft) N-NE 22 2 min 0 W/m 8,8 C 11,4 C 9,7 km/h (2 Bft)
10/01/2012 13:30 11,4 C 83 % 1032,5 hPa 0,0 mm 8,6 km/h (2 Bft) N-NE 22 2 min 0 W/m 8,6 C 11,4 C 10,1 km/h (2 Bft)
10/01/2012 13:40 11,4 C 83 % 1032,3 hPa 0,0 mm 7,9 km/h (2 Bft) N 360 2 min 0 W/m 8,6 C 11,4 C 12,2 km/h (2 Bft)
10/01/2012 13:50 11,4 C 82 % 1032,2 hPa 0,0 mm 9,7 km/h (2 Bft) NE 45 2 min 0 W/m 8,4 C 11,4 C 13,0 km/h (3 Bft)
10/01/2012 14:00 11,4 C 81 % 1032,2 hPa 0,0 mm 4,7 km/h (1 Bft) N-NE 22 2 min 0 W/m 8,3 C 11,4 C 4,7 km/h (1 Bft)
10/01/2012 14:10 11,4 C 80 % 1032,2 hPa 0,0 mm 10,1 km/h (2 Bft) N-NE 22 2 min 0 W/m 8,1 C 11,4 C 12,6 km/h (3 Bft)
10/01/2012 14:20 11,3 C 80 % 1032,2 hPa 0,0 mm 12,2 km/h (2 Bft) NE 45 2 min 0 W/m 8,0 C 11,3 C 17,6 km/h (3 Bft)
10/01/2012 14:30 10,9 C 79 % 1031,8 hPa 0,0 mm 8,3 km/h (2 Bft) N-NE 22 2 min 0 W/m 7,4 C 10,9 C 10,1 km/h (2 Bft)
10/01/2012 14:40 10,6 C 80 % 1031,4 hPa 0,0 mm 15,8 km/h (3 Bft) N 360 2 min 0 W/m 7,3 C 10,6 C 22,3 km/h (4 Bft)
10/01/2012 14:50 10,3 C 81 % 1031,5 hPa 0,0 mm 8,6 km/h (2 Bft) N-NE 22 2 min 0 W/m 7,2 C 10,3 C 8,6 km/h (2 Bft)
10/01/2012 15:00 10,1 C 81 % 1031,3 hPa 0,0 mm 10,1 km/h (2 Bft) NE 45 2 min 0 W/m 7,0 C 10,1 C 13,3 km/h (3 Bft)
10/01/2012 15:10 10,0 C 82 % 1031,3 hPa 0,0 mm 8,3 km/h (2 Bft) N 360 2 min 0 W/m 7,1 C 8,9 C 13,0 km/h (3 Bft)
10/01/2012 15:20 10,0 C 81 % 1031,3 hPa 0,0 mm 8,3 km/h (2 Bft) NE 45 2 min 0 W/m 6,9 C 8,9 C 12,6 km/h (3 Bft)
10/01/2012 15:30 10,1 C 81 % 1031,2 hPa 0,0 mm 3,2 km/h (1 Bft) NE 45 2 min 0 W/m 7,0 C 10,1 C 7,2 km/h (2 Bft)
10/01/2012 15:40 10,2 C 81 % 1031,2 hPa 0,0 mm 7,6 km/h (2 Bft) N-NE 22 2 min 0 W/m 7,1 C 10,2 C 9,7 km/h (2 Bft)
10/01/2012 15:50 10,2 C 80 % 1031,2 hPa 0,0 mm 3,2 km/h (1 Bft) N-NE 22 2 min 0 W/m 6,9 C 10,2 C 6,5 km/h (2 Bft)
10/01/2012 16:00 10,1 C 80 % 1031,2 hPa 0,0 mm 7,2 km/h (2 Bft) NE 45 2 min 0 W/m 6,8 C 10,1 C 10,4 km/h (2 Bft)
10/01/2012 16:10 9,9 C 79 % 1031,3 hPa 0,0 mm 11,9 km/h (2 Bft) E-NE 67 2 min 0 W/m 6,4 C 8,2 C 16,9 km/h (3 Bft)
10/01/2012 16:20 9,8 C 79 % 1031,3 hPa 0,0 mm 7,2 km/h (2 Bft) N-NE 22 2 min 0 W/m 6,3 C 8,9 C 11,5 km/h (2 Bft)
10/01/2012 16:30 9,6 C 79 % 1031,2 hPa 0,0 mm 7,2 km/h (2 Bft) N-NE 22 2 min 0 W/m 6,1 C 8,7 C 12,6 km/h (3 Bft)
10/01/2012 16:40 9,4 C 79 % 1031,2 hPa 0,0 mm 7,6 km/h (2 Bft) NE 45 2 min 0 W/m 5,9 C 8,4 C 11,2 km/h (2 Bft)
10/01/2012 16:50 9,2 C 80 % 1031,1 hPa 0,0 mm 8,6 km/h (2 Bft) N-NE 22 2 min 0 W/m 5,9 C 7,9 C 11,5 km/h (2 Bft)
10/01/2012 17:00 9,1 C 80 % 1031,1 hPa 0,0 mm 4,7 km/h (1 Bft) N-NE 22 2 min 0 W/m 5,8 C 8,8 C 6,8 km/h (2 Bft)
10/01/2012 17:10 8,8 C 80 % 1031,1 hPa 0,0 mm 5,0 km/h (1 Bft) N-NE 22 2 min 0 W/m 5,5 C 8,4 C 6,8 km/h (2 Bft)
10/01/2012 17:20 8,5 C 81 % 1031,0 hPa 0,0 mm 7,2 km/h (2 Bft) N-NE 22 0 min 0 W/m 5,4 C 7,4 C 9,7 km/h (2 Bft)
10/01/2012 17:30 8,2 C 82 % 1031,0 hPa 0,0 mm 5,8 km/h (2 Bft) N-NE 22 0 min 0 W/m 5,3 C 7,5 C 9,4 km/h (2 Bft)
10/01/2012 17:40 7,9 C 82 % 1031,0 hPa 0,0 mm 3,6 km/h (1 Bft) NE 45 0 min 0 W/m 5,0 C 7,9 C 6,1 km/h (2 Bft)
10/01/2012 17:50 7,7 C 83 % 1031,0 hPa 0,0 mm 6,1 km/h (2 Bft) NE 45 0 min 0 W/m 5,0 C 6,8 C 6,1 km/h (2 Bft)
10/01/2012 18:00 7,4 C 83 % 1031,1 hPa 0,0 mm 6,5 km/h (2 Bft) NE 45 0 min 0 W/m 4,7 C 6,3 C 6,5 km/h (2 Bft)
10/01/2012 18:10 7,3 C 84 % 1031,1 hPa 0,0 mm 7,9 km/h (2 Bft) N-NE 22 0 min 0 W/m 4,8 C 5,9 C 10,8 km/h (2 Bft)
10/01/2012 18:20 7,1 C 85 % 1031,0 hPa 0,0 mm 5,8 km/h (2 Bft) N-NE 22 0 min 0 W/m 4,8 C 6,2 C 6,8 km/h (2 Bft)
10/01/2012 18:30 6,9 C 85 % 1031,0 hPa 0,0 mm 2,5 km/h (1 Bft) NE 45 0 min 0 W/m 4,6 C 6,9 C 4,0 km/h (1 Bft)
10/01/2012 18:40 6,8 C 85 % 1031,0 hPa 0,0 mm 5,4 km/h (2 Bft) N 360 0 min 0 W/m 4,5 C 6,0 C 8,6 km/h (2 Bft)
10/01/2012 18:50 6,6 C 86 % 1030,9 hPa 0,0 mm 5,4 km/h (2 Bft) N-NE 22 0 min 0 W/m 4,4 C 5,8 C 7,6 km/h (2 Bft)
10/01/2012 19:00 6,4 C 86 % 1031,1 hPa 0,0 mm 4,3 km/h (1 Bft) NE 45 0 min 0 W/m 4,2 C 6,4 C 8,6 km/h (2 Bft)
10/01/2012 19:10 6,3 C 87 % 1031,0 hPa 0,0 mm 4,7 km/h (1 Bft) N-NE 22 0 min 0 W/m 4,3 C 5,7 C 7,2 km/h (2 Bft)
10/01/2012 19:20 6,1 C 88 % 1031,1 hPa 0,0 mm 4,7 km/h (1 Bft) N 360 0 min 0 W/m 4,3 C 5,4 C 7,9 km/h (2 Bft)
10/01/2012 19:30 6,0 C 89 % 1031,1 hPa 0,0 mm 6,1 km/h (2 Bft) N 360 0 min 0 W/m 4,3 C 4,8 C 7,6 km/h (2 Bft)
10/01/2012 19:40 5,9 C 89 % 1031,0 hPa 0,0 mm 5,0 km/h (1 Bft) N-NE 22 0 min 0 W/m 4,2 C 5,1 C 8,6 km/h (2 Bft)
10/01/2012 19:50 5,9 C 90 % 1031,0 hPa 0,0 mm 5,0 km/h (1 Bft) N-NE 22 0 min 0 W/m 4,4 C 5,1 C 8,3 km/h (2 Bft)
10/01/2012 20:00 5,8 C 90 % 1030,9 hPa 0,0 mm 4,7 km/h (1 Bft) NE 45 0 min 0 W/m 4,3 C 5,1 C 4,7 km/h (1 Bft)
10/01/2012 20:10 5,8 C 90 % 1031,0 hPa 0,0 mm 3,6 km/h (1 Bft) N 360 0 min 0 W/m 4,3 C 5,8 C 8,3 km/h (2 Bft)
10/01/2012 20:20 5,7 C 90 % 1030,9 hPa 0,0 mm 5,8 km/h (2 Bft) E-NE 67 0 min 0 W/m 4,2 C 4,6 C 11,2 km/h (2 Bft)
10/01/2012 20:30 5,7 C 90 % 1030,9 hPa 0,0 mm 6,8 km/h (2 Bft) NE 45 0 min 0 W/m 4,2 C 4,3 C 7,9 km/h (2 Bft)
10/01/2012 20:40 5,6 C 91 % 1030,9 hPa 0,0 mm 6,8 km/h (2 Bft) N-NE 22 0 min 0 W/m 4,2 C 4,2 C 6,8 km/h (2 Bft)
10/01/2012 20:50 5,6 C 91 % 1030,8 hPa 0,0 mm 7,9 km/h (2 Bft) NE 45 0 min 0 W/m 4,2 C 3,9 C 13,7 km/h (3 Bft)
10/01/2012 21:00 5,6 C 92 % 1030,8 hPa 0,0 mm 5,8 km/h (2 Bft) NE 45 0 min 0 W/m 4,4 C 4,5 C 8,6 km/h (2 Bft)
10/01/2012 21:10 5,7 C 92 % 1030,8 hPa 0,0 mm 8,3 km/h (2 Bft) NE 45 0 min 0 W/m 4,5 C 3,9 C 12,6 km/h (3 Bft)
10/01/2012 21:20 5,8 C 93 % 1030,7 hPa 0,0 mm 10,1 km/h (2 Bft) NE 45 0 min 0 W/m 4,8 C 3,6 C 14,4 km/h (3 Bft)
10/01/2012 21:30 5,8 C 93 % 1030,7 hPa 0,0 mm 6,1 km/h (2 Bft) N-NE 22 0 min 0 W/m 4,8 C 4,6 C 11,2 km/h (2 Bft)
10/01/2012 21:40 5,8 C 93 % 1030,7 hPa 0,0 mm 7,6 km/h (2 Bft) NE 45 0 min 0 W/m 4,8 C 4,2 C 11,5 km/h (2 Bft)
10/01/2012 21:50 5,8 C 93 % 1030,6 hPa 0,0 mm 7,2 km/h (2 Bft) N-NE 22 0 min 0 W/m 4,8 C 4,3 C 9,7 km/h (2 Bft)
10/01/2012 22:00 5,8 C 93 % 1030,6 hPa 0,0 mm 5,4 km/h (2 Bft) NE 45 0 min 0 W/m 4,8 C 4,8 C 8,6 km/h (2 Bft)
10/01/2012 22:10 5,7 C 93 % 1030,5 hPa 0,0 mm 5,8 km/h (2 Bft) NE 45 0 min 0 W/m 4,7 C 4,6 C 10,4 km/h (2 Bft)
10/01/2012 22:20 5,7 C 93 % 1030,6 hPa 0,0 mm 6,8 km/h (2 Bft) NE 45 0 min 0 W/m 4,7 C 4,3 C 11,2 km/h (2 Bft)
10/01/2012 22:30 5,6 C 93 % 1030,5 hPa 0,0 mm 7,6 km/h (2 Bft) N-NE 22 0 min 0 W/m 4,6 C 3,9 C 8,6 km/h (2 Bft)
10/01/2012 22:40 5,8 C 93 % 1030,5 hPa 0,0 mm 7,2 km/h (2 Bft) N-NE 22 0 min 0 W/m 4,8 C 4,3 C 9,4 km/h (2 Bft)
10/01/2012 22:50 5,7 C 93 % 1030,4 hPa 0,0 mm 7,2 km/h (2 Bft) NE 45 0 min 0 W/m 4,7 C 4,2 C 10,4 km/h (2 Bft)
10/01/2012 23:00 5,6 C 93 % 1030,4 hPa 0,0 mm 5,4 km/h (2 Bft) N 360 0 min 0 W/m 4,6 C 4,6 C 7,9 km/h (2 Bft)
10/01/2012 23:10 5,6 C 93 % 1030,4 hPa 0,0 mm 5,4 km/h (2 Bft) NE 45 0 min 0 W/m 4,6 C 4,6 C 8,3 km/h (2 Bft)
10/01/2012 23:20 5,6 C 93 % 1030,4 hPa 0,0 mm 4,3 km/h (1 Bft) N-NE 22 0 min 0 W/m 4,6 C 5,6 C 7,2 km/h (2 Bft)
10/01/2012 23:30 5,6 C 94 % 1030,3 hPa 0,0 mm 4,0 km/h (1 Bft) NE 45 0 min 0 W/m 4,7 C 5,6 C 9,4 km/h (2 Bft)
10/01/2012 23:40 5,6 C 94 % 1030,3 hPa 0,0 mm 6,8 km/h (2 Bft) N-NE 22 0 min 0 W/m 4,7 C 4,2 C 11,2 km/h (2 Bft)
10/01/2012 23:50 5,7 C 94 % 1030,3 hPa 0,0 mm 4,3 km/h (1 Bft) E-NE 67 0 min 0 W/m 4,8 C 5,7 C 7,6 km/h (2 Bft)
_ Min-Heure 01:10 16:40 23:50 - 07:40 - - - - 01:00 21:20 07:40
Minimum _ 3,6 C 79 % 1030,3 hPa - 0,0 km/h (0 Bft) - - - - 2,1 C 3,6 C 0,0 km/h (0 Bft)
_ Max-Heure 14:10 11:50 03:10 23:50 14:40 - - 17:10 23:50 13:00 14:10 14:40
Maximum _ 11,4 C 96 % 1033,6 hPa 0,0 mm 15,8 km/h
N (3 Bft)
- - 2 min 0 W/m 9,5 C 11,4 C 22,3 km/h
N (4 Bft)
Moyenne _ 6,5 C 90 % 1032,2 hPa #0,0 mm 4,0 km/h (1 Bft) NE - #1:42 h 0 W/m 4,9 C 6,1 C 6,2 km/h (2 Bft)
Saint Bonnet de Bellac- Haute Vienne - France